SWA6132 KMDW-KMCI

Flight info

Callsign SWA6132
Flight time 1h 2m
Altitude 34000
Route PEKUE PIGGG QUANE CARET BULET RUDDH3
Aircraft B737/M-SDE2E3GIJ4RWZ/LB1D1

Departure

Time 2026-05-04 11:29
Airport Chicago Midway International Airport (KMDW)

Arrival

Time 2026-05-04 12:31
Airport Kansas City International Airport (KMCI)
Time Latitude Longitude Altitude Speed Heading
2026-05-04 11:22 41.78867 -87.74402 618 ft 0 kts 142°
2026-05-04 11:25 41.78868 -87.74402 618 ft 0 kts 139°
2026-05-04 11:26 41.78870 -87.74404 618 ft 0 kts 127°
2026-05-04 11:27 41.78901 -87.74395 624 ft 23 kts
2026-05-04 11:28 41.78970 -87.74412 621 ft 6 kts 347°
2026-05-04 11:28 41.79047 -87.74472 622 ft 12 kts 302°
2026-05-04 11:28 41.78963 -87.74622 619 ft 56 kts 223°
2026-05-04 11:28 41.78441 -87.75273 622 ft 145 kts 223°
2026-05-04 11:29 41.77571 -87.76355 1120 ft 189 kts 223°
2026-05-04 11:29 41.76709 -87.77862 1707 ft 218 kts 244°
2026-05-04 11:29 41.76366 -87.79859 2177 ft 225 kts 269°
2026-05-04 11:29 41.76758 -87.81946 2681 ft 240 kts 290°
2026-05-04 11:31 41.78562 -87.97889 6524 ft 253 kts 271°
2026-05-04 11:33 41.79006 -88.14865 9803 ft 267 kts 270°
2026-05-04 11:33 41.79044 -88.17377 10180 ft 275 kts 270°
2026-05-04 11:33 41.79075 -88.19999 10572 ft 287 kts 270°
2026-05-04 11:34 41.79101 -88.22718 10977 ft 297 kts 270°
2026-05-04 11:34 41.79140 -88.25539 11364 ft 308 kts 272°
2026-05-04 11:34 41.79232 -88.28444 11746 ft 315 kts 272°
2026-05-04 11:34 41.79320 -88.31384 12109 ft 316 kts 272°
2026-05-04 11:35 41.79397 -88.34345 12476 ft 318 kts 272°
2026-05-04 11:35 41.79434 -88.37313 12841 ft 319 kts 271°
2026-05-04 11:35 41.79459 -88.40291 13212 ft 320 kts 271°
2026-05-04 11:35 41.79474 -88.43247 13554 ft 322 kts 271°
2026-05-04 11:36 41.79485 -88.46256 13862 ft 323 kts 271°
2026-05-04 11:36 41.79495 -88.49289 14173 ft 326 kts 271°
2026-05-04 11:36 41.79513 -88.52332 14490 ft 327 kts 271°
2026-05-04 11:36 41.79525 -88.54356 14714 ft 328 kts 271°
2026-05-04 11:37 41.79548 -88.57432 15055 ft 330 kts 271°
2026-05-04 11:37 41.79579 -88.60525 15397 ft 333 kts 271°
2026-05-04 11:37 41.79609 -88.63632 15737 ft 335 kts 271°
2026-05-04 11:37 41.79607 -88.67782 16186 ft 338 kts 270°
2026-05-04 11:38 41.79606 -88.69912 16415 ft 339 kts 270°
2026-05-04 11:38 41.79609 -88.73085 16751 ft 341 kts 270°
2026-05-04 11:38 41.79613 -88.76276 17084 ft 343 kts 270°
2026-05-04 11:38 41.79620 -88.79450 17400 ft 346 kts 271°
2026-05-04 11:39 41.79508 -88.82673 17719 ft 348 kts 263°
2026-05-04 11:39 41.79098 -88.85885 18050 ft 351 kts 261°
2026-05-04 11:40 41.76448 -89.05512 19950 ft 362 kts 261°
2026-05-04 11:41 41.76009 -89.08848 20260 ft 365 kts 261°
2026-05-04 11:41 41.75607 -89.12210 20569 ft 366 kts 262°
2026-05-04 11:41 41.75195 -89.15588 20875 ft 369 kts 258°
2026-05-04 11:41 41.74287 -89.18816 21163 ft 372 kts 246°
2026-05-04 11:42 41.73120 -89.21922 21501 ft 375 kts 245°
2026-05-04 11:42 41.71947 -89.25018 21803 ft 378 kts 245°
2026-05-04 11:42 41.70760 -89.28177 22103 ft 380 kts 245°
2026-05-04 11:42 41.69574 -89.31343 22405 ft 381 kts 245°
2026-05-04 11:43 41.68387 -89.34523 22699 ft 383 kts 245°
2026-05-04 11:43 41.67199 -89.37729 23000 ft 385 kts 245°
2026-05-04 11:43 41.66005 -89.40963 23304 ft 388 kts 245°
2026-05-04 11:43 41.64808 -89.44207 23570 ft 390 kts 245°
2026-05-04 11:44 41.63609 -89.47463 23860 ft 391 kts 245°
2026-05-04 11:44 41.62402 -89.50731 24151 ft 393 kts 245°
2026-05-04 11:44 41.61182 -89.54019 24440 ft 396 kts 245°
2026-05-04 11:44 41.59965 -89.57301 24978 ft 394 kts 245°
2026-05-04 11:45 41.58736 -89.60597 25554 ft 398 kts 245°
2026-05-04 11:45 41.57491 -89.63914 26135 ft 401 kts 245°
2026-05-04 11:45 41.56231 -89.67250 26726 ft 403 kts 245°
2026-05-04 11:45 41.54965 -89.70596 27327 ft 404 kts 245°
2026-05-04 11:46 41.53721 -89.73915 27927 ft 405 kts 246°
2026-05-04 11:46 41.52403 -89.77246 28550 ft 406 kts 243°
2026-05-04 11:46 41.50988 -89.80512 29191 ft 406 kts 242°
2026-05-04 11:46 41.49561 -89.83768 29836 ft 405 kts 243°
2026-05-04 11:47 41.48138 -89.87005 30397 ft 403 kts 243°
2026-05-04 11:47 41.46718 -89.90224 30966 ft 401 kts 243°
2026-05-04 11:47 41.45302 -89.93418 31545 ft 399 kts 243°
2026-05-04 11:47 41.43891 -89.96590 32138 ft 395 kts 243°
2026-05-04 11:48 41.42522 -89.99741 32743 ft 391 kts 244°
2026-05-04 11:48 41.41178 -90.02870 33360 ft 387 kts 244°
2026-05-04 11:48 41.39837 -90.05980 33712 ft 390 kts 244°
2026-05-04 11:49 41.37092 -90.12357 33826 ft 406 kts 244°
2026-05-04 11:49 41.35687 -90.15637 33982 ft 411 kts 244°
2026-05-04 11:49 41.34249 -90.18964 33997 ft 419 kts 243°
2026-05-04 11:50 41.31230 -90.25769 33998 ft 434 kts 243°
2026-05-04 11:50 41.28127 -90.32797 33995 ft 445 kts 243°
2026-05-04 11:51 41.24977 -90.39952 33994 ft 451 kts 243°
2026-05-04 11:51 41.21801 -90.47179 34000 ft 453 kts 243°
2026-05-04 11:52 41.18633 -90.54403 33999 ft 451 kts 243°
2026-05-04 11:52 41.15497 -90.61547 34016 ft 451 kts 243°
2026-05-04 11:53 41.12341 -90.68747 34013 ft 451 kts 243°
2026-05-04 11:53 41.09138 -90.75895 34009 ft 450 kts 242°
2026-05-04 11:55 40.96377 -91.04341 34013 ft 449 kts 243°
2026-05-04 11:56 40.93178 -91.11427 34020 ft 448 kts 242°
2026-05-04 11:56 40.89984 -91.18496 34018 ft 448 kts 242°
2026-05-04 11:57 40.86794 -91.25564 34020 ft 448 kts 242°
2026-05-04 11:57 40.83608 -91.32649 34018 ft 449 kts 243°
2026-05-04 11:58 40.80431 -91.39758 34009 ft 449 kts 242°
2026-05-04 11:58 40.77197 -91.46763 34010 ft 450 kts 242°
2026-05-04 11:59 40.73931 -91.53800 34009 ft 450 kts 242°
2026-05-04 11:59 40.70670 -91.60858 34010 ft 451 kts 242°
2026-05-04 12:00 40.67412 -91.67938 34010 ft 451 kts 242°
2026-05-04 12:00 40.64154 -91.75027 34011 ft 452 kts 242°
2026-05-04 12:01 40.60909 -91.82107 34010 ft 452 kts 242°
2026-05-04 12:02 40.49523 -92.06875 34014 ft 454 kts 241°
2026-05-04 12:03 40.46214 -92.13942 34009 ft 455 kts 241°
2026-05-04 12:03 40.42901 -92.21025 34017 ft 455 kts 241°
2026-05-04 12:04 40.41243 -92.24591 33570 ft 461 kts 241°
2026-05-04 12:04 40.39582 -92.28174 33095 ft 456 kts 241°
2026-05-04 12:04 40.37948 -92.31700 32629 ft 448 kts 241°
2026-05-04 12:04 40.36337 -92.35182 32169 ft 443 kts 241°
2026-05-04 12:05 40.34741 -92.38636 31729 ft 441 kts 241°
2026-05-04 12:05 40.33135 -92.42041 31295 ft 437 kts 240°
2026-05-04 12:05 40.31523 -92.45401 30861 ft 433 kts 240°
2026-05-04 12:05 40.29920 -92.48732 30438 ft 430 kts 240°
2026-05-04 12:06 40.28349 -92.51993 30025 ft 427 kts 240°
2026-05-04 12:06 40.26768 -92.55270 29574 ft 424 kts 240°
2026-05-04 12:06 40.25213 -92.58541 29090 ft 420 kts 241°
2026-05-04 12:06 40.23705 -92.61792 28610 ft 416 kts 242°
2026-05-04 12:07 40.22208 -92.65031 28142 ft 412 kts 242°
2026-05-04 12:07 40.20726 -92.68228 27678 ft 409 kts 242°
2026-05-04 12:07 40.19256 -92.71391 27228 ft 405 kts 242°
2026-05-04 12:07 40.17782 -92.74537 26780 ft 403 kts 241°
2026-05-04 12:08 40.16312 -92.77581 26335 ft 400 kts 240°
2026-05-04 12:08 40.14823 -92.80638 25915 ft 396 kts 240°
2026-05-04 12:08 40.13345 -92.83669 25490 ft 394 kts 240°
2026-05-04 12:08 40.11880 -92.86672 25069 ft 391 kts 241°
2026-05-04 12:09 40.10453 -92.89677 24655 ft 388 kts 242°
2026-05-04 12:09 40.09053 -92.92669 24248 ft 385 kts 242°
2026-05-04 12:09 40.07656 -92.95644 23846 ft 383 kts 242°
2026-05-04 12:09 40.06266 -92.98598 23453 ft 380 kts 242°
2026-05-04 12:10 40.04887 -93.01530 23002 ft 378 kts 242°
2026-05-04 12:10 40.03507 -93.04444 22535 ft 376 kts 241°
2026-05-04 12:10 40.02108 -93.07313 22078 ft 373 kts 241°
2026-05-04 12:10 40.00716 -93.10155 21626 ft 371 kts 241°
2026-05-04 12:11 39.99336 -93.12980 21181 ft 368 kts 241°
2026-05-04 12:11 39.97964 -93.15782 20743 ft 366 kts 241°
2026-05-04 12:11 39.96601 -93.18573 20307 ft 363 kts 241°
2026-05-04 12:11 39.95246 -93.21351 19883 ft 361 kts 241°
2026-05-04 12:12 39.93902 -93.24101 19461 ft 358 kts 241°
2026-05-04 12:12 39.92572 -93.26831 19049 ft 356 kts 241°
2026-05-04 12:12 39.91267 -93.29521 18650 ft 354 kts 241°
2026-05-04 12:12 39.89938 -93.32255 18243 ft 352 kts 241°
2026-05-04 12:13 39.88652 -93.34906 17820 ft 349 kts 241°
2026-05-04 12:14 39.79904 -93.53198 14761 ft 333 kts 240°
2026-05-04 12:15 39.78655 -93.55735 14344 ft 332 kts 240°
2026-05-04 12:15 39.77417 -93.58251 13936 ft 330 kts 240°
2026-05-04 12:15 39.76192 -93.60759 13531 ft 327 kts 240°
2026-05-04 12:15 39.74975 -93.63254 13091 ft 325 kts 240°
2026-05-04 12:16 39.73765 -93.65729 12638 ft 323 kts 240°
2026-05-04 12:16 39.72563 -93.68197 12206 ft 321 kts 240°
2026-05-04 12:16 39.71381 -93.70625 12014 ft 313 kts 240°
2026-05-04 12:16 39.70228 -93.72985 12013 ft 306 kts 240°
2026-05-04 12:17 39.69079 -93.75330 12007 ft 313 kts 240°
2026-05-04 12:17 39.67937 -93.77659 11996 ft 297 kts 240°
2026-05-04 12:17 39.66858 -93.79847 11990 ft 279 kts 240°
2026-05-04 12:17 39.65838 -93.81901 11974 ft 263 kts 240°
2026-05-04 12:18 39.64874 -93.83832 11978 ft 254 kts 240°
2026-05-04 12:18 39.63914 -93.85741 11991 ft 253 kts 241°
2026-05-04 12:18 39.62965 -93.87716 11783 ft 265 kts 243°
2026-05-04 12:18 39.62132 -93.89883 11348 ft 271 kts 248°
2026-05-04 12:19 39.61341 -93.92104 10913 ft 270 kts 248°
2026-05-04 12:19 39.60550 -93.94305 10489 ft 269 kts 248°
2026-05-04 12:19 39.59764 -93.96500 10089 ft 268 kts 248°
2026-05-04 12:19 39.58977 -93.98685 9693 ft 267 kts 248°
2026-05-04 12:20 39.58188 -94.00862 9255 ft 266 kts 248°
2026-05-04 12:20 39.57404 -94.03026 8820 ft 265 kts 248°
2026-05-04 12:20 39.56635 -94.05161 8396 ft 265 kts 248°
2026-05-04 12:20 39.55858 -94.07323 7974 ft 264 kts 248°
2026-05-04 12:21 39.55086 -94.09486 7558 ft 264 kts 248°
2026-05-04 12:21 39.54291 -94.11633 7150 ft 265 kts 247°
2026-05-04 12:21 39.53521 -94.13761 6994 ft 254 kts 254°
2026-05-04 12:21 39.53233 -94.15942 6980 ft 241 kts 266°
2026-05-04 12:22 39.53063 -94.18079 7032 ft 238 kts 265°
2026-05-04 12:22 39.52870 -94.20241 7032 ft 247 kts 265°
2026-05-04 12:22 39.52675 -94.22477 7012 ft 250 kts 265°
2026-05-04 12:22 39.52482 -94.24716 7000 ft 248 kts 265°
2026-05-04 12:23 39.52356 -94.26181 7002 ft 247 kts 265°
2026-05-04 12:23 39.52163 -94.28383 7006 ft 246 kts 265°
2026-05-04 12:23 39.51973 -94.30589 7003 ft 247 kts 265°
2026-05-04 12:23 39.51810 -94.32803 7008 ft 247 kts 266°
2026-05-04 12:24 39.51654 -94.35006 7002 ft 243 kts 266°
2026-05-04 12:24 39.51499 -94.37158 6998 ft 237 kts 265°
2026-05-04 12:24 39.51318 -94.39264 6925 ft 236 kts 264°
2026-05-04 12:24 39.51120 -94.41233 6663 ft 243 kts 264°
2026-05-04 12:25 39.50906 -94.43371 6395 ft 239 kts 264°
2026-05-04 12:25 39.50692 -94.45477 6141 ft 234 kts 264°
2026-05-04 12:25 39.50479 -94.47559 5853 ft 232 kts 264°
2026-05-04 12:25 39.50271 -94.49638 5562 ft 234 kts 264°
2026-05-04 12:26 39.50062 -94.51737 5251 ft 235 kts 264°
2026-05-04 12:26 39.49856 -94.53841 4957 ft 235 kts 264°
2026-05-04 12:26 39.49652 -94.55945 4646 ft 234 kts 264°
2026-05-04 12:26 39.49432 -94.58034 4363 ft 234 kts 263°
2026-05-04 12:27 39.49198 -94.60122 4062 ft 233 kts 263°
2026-05-04 12:27 39.48964 -94.62148 3981 ft 222 kts 262°
2026-05-04 12:27 39.48574 -94.64066 3983 ft 223 kts 250°
2026-05-04 12:27 39.47778 -94.65872 3701 ft 240 kts 232°
2026-05-04 12:28 39.46588 -94.67290 3389 ft 231 kts 215°
2026-05-04 12:28 39.45171 -94.68153 3101 ft 218 kts 208°
2026-05-04 12:28 39.43742 -94.68727 2822 ft 212 kts 198°
2026-05-04 12:28 39.42324 -94.69114 2554 ft 206 kts 198°
2026-05-04 12:29 39.40920 -94.69535 2512 ft 210 kts 198°
2026-05-04 12:29 39.39484 -94.69945 2516 ft 212 kts 198°
2026-05-04 12:29 39.38155 -94.70275 2205 ft 179 kts 194°
2026-05-04 12:29 39.37009 -94.70507 1883 ft 159 kts 196°
2026-05-04 12:30 39.35983 -94.70863 1699 ft 152 kts 197°
2026-05-04 12:30 39.34963 -94.71199 1481 ft 149 kts 194°
2026-05-04 12:30 39.33979 -94.71495 1292 ft 145 kts 193°
2026-05-04 12:30 39.33000 -94.71812 1103 ft 145 kts 193°
2026-05-04 12:31 39.32036 -94.72112 997 ft 138 kts 192°
2026-05-04 12:31 39.31284 -94.72352 999 ft 49 kts 194°
2026-05-04 12:31 39.31112 -94.72405 1002 ft 23 kts 193°
2026-05-04 12:31 39.30957 -94.72437 1002 ft 22 kts 183°
2026-05-04 12:32 39.30832 -94.72416 1003 ft 11 kts 159°
2026-05-04 12:32 39.30701 -94.72268 1005 ft 14 kts 165°
2026-05-04 12:32 39.30565 -94.72292 1007 ft 24 kts 192°
2026-05-04 12:33 39.30395 -94.72343 1009 ft 27 kts 194°
2026-05-04 12:33 39.30212 -94.72399 1011 ft 28 kts 193°
2026-05-04 12:33 39.30029 -94.72453 1013 ft 26 kts 193°
2026-05-04 12:33 39.29882 -94.72495 1015 ft 18 kts 186°
2026-05-04 12:34 39.29805 -94.72388 1016 ft 16 kts 133°
2026-05-04 12:34 39.29792 -94.72343 1016 ft 0 kts 105°